Temperature
7 8 7 7 7 7 7 8 8 10 10 11 11 11 10 9 8 8 7 7 7 7 7 7 7 6 6 6 6 6 5 5 5 5 5 5 5 5 5 5 5 4 4 4
6 7 6 6 7 7 7 8 8 8 9 11 10 9 9 9 8 8 7 7 7 7 7 7 7 6 6 6 6 6 5 5 5 5 5 5 5 5 5 4 4 4 4 4
7 7 6 7 8 8 7 7 8 8 10 10 9 9 9 8 8 7 7 7 7 7 7 7 7 6 6 6 6 5 5 5 5 5 5 4 4 4 4 4 4 4 3 3
6 6 7 10 8 8 8 8 8 8 9 9 8 8 7 7 7 7 7 7 7 7 7 7 6 6 6 6 6 5 5 5 5 5 4 4 4 4 4 4 4 3 3 3
6 6 8 10 8 7 7 8 8 8 8 8 7 6 8 8 7 7 7 7 7 7 7 7 6 6 6 6 5 5 5 5 5 4 4 4 4 4 4 4 3 3 3 3
5 6 7 10 7 6 7 9 9 7 8 7 6 9 10 8 7 7 7 7 7 7 7 7 6 6 6 5 5 5 5 5 4 4 4 4 4 4 3 3 3 3 3 3
5 5 8 9 6 6 8 10 8 7 7 6 7 8 7 7 6 6 7 7 7 7 7 7 6 6 6 5 5 5 5 5 4 4 4 4 4 3 3 3 3 3 2 2
5 5 7 7 6 7 9 8 7 6 6 6 6 6 6 6 6 6 6 6 6 6 6 6 6 6 5 5 5 5 4 4 4 4 4 3 3 3 3 3 2 2 2 2
6 8 8 6 7 7 6 6 6 6 6 5 5 5 5 5 5 5 6 6 6 6 6 6 6 5 5 5 5 5 4 4 4 4 3 3 3 3 3 2 2 2 2 2
5 6 7 6 6 6 6 5 5 5 5 5 4 4 4 4 5 5 5 5 5 5 6 6 6 5 5 5 4 4 4 4 4 3 3 3 3 3 2 2 2 2 2 1
5 6 6 6 6 6 6 5 5 5 4 4 4 4 4 4 4 4 5 5 5 5 5 5 5 5 5 4 4 4 4 3 3 3 3 3 3 2 2 2 2 2 1 1
6 7 7 7 6 5 5 4 4 4 4 4 4 3 3 3 4 4 4 4 5 5 5 5 5 4 4 4 4 4 3 3 3 3 3 3 2 2 2 2 2 1 1 1
6 5 5 5 4 4 4 3 3 3 3 3 3 3 3 3 4 4 4 4 4 4 4 4 4 4 4 4 3 3 3 3 3 3 3 2 2 2 2 2 1 1 1 0
4 4 3 4 3 3 3 3 3 3 3 3 3 3 3 3 3 4 4 4 4 4 4 4 4 4 4 3 3 3 3 3 3 3 2 2 2 2 1 1 1 1 0 0
3 3 3 3 3 2 2 2 2 2 2 2 2 2 2 3 3 3 3 4 4 4 4 4 4 4 3 3 3 3 3 3 2 2 2 2 1 1 1 1 0 0 0 -0
2 2 2 2 2 2 2 2 2 2 2 2 2 2 2 2 3 3 3 3 3 3 3 3 3 3 3 3 3 2 2 2 2 2 2 1 1 1 1 0 0 -0 -0 -1
1 1 2 2 2 2 2 1 1 2 2 2 2 2 2 2 2 3 3 3 3 3 3 3 3 3 3 2 2 2 2 2 2 1 1 1 1 0 0 -0 -0 -1 -1 -1
1 1 1 1 1 1 1 1 1 1 2 2 2 2 2 2 2 2 3 3 3 3 3 3 3 2 2 2 2 2 2 2 1 1 1 1 0 0 -0 -1 -1 -1 -1 -1
1 1 1 1 1 1 1 1 1 1 1 1 1 1 1 2 2 2 2 2 2 2 3 3 2 2 2 2 2 2 1 1 1 1 1 0 -0 -0 -1 -1 -1 -1 -1 -1
1 1 1 1 1 1 1 1 1 1 1 1 1 1 1 2 1 2 2 2 2 2 2 2 2 2 2 2 1 1 1 1 1 1 0 0 -0 -1 -1 -1 -1 -1 -1 -2
1 1 1 1 1 1 1 1 1 1 1 1 1 1 1 1 1 1 1 2 2 2 2 1 1 1 1 1 1 1 1 1 0 0 -0 -0 -0 -1 -1 -1 -1 -2 -2 -2
0 0 0 0 0 1 1 1 1 1 1 1 1 1 1 1 1 1 1 1 1 1 1 1 1 1 1 0 0 0 0 0 -0 -0 -0 -1 -1 -1 -1 -1 -2 -2 -2 -2
-0 0 0 0 -0 0 0 0 0 0 0 0 0 0 0 0 0 0 1 1 1 1 1 0 0 0 -0 -0 -0 -0 -0 -0 -0 -1 -1 -1 -1 -1 -2 -2 -2 -2 -2 -2
-0 -0 -0 -0 -0 -0 -0 0 -0 -0 -0 -0 0 0 -0 -0 0 0 0 0 0 0 0 0 -0 -0 -0 -1 -1 -1 -1 -1 -1 -1 -1 -1 -1 -2 -2 -2 -2 -2 -3 -3
-1 -1 -1 -1 -1 -1 -0 -0 -0 -0 -0 -0 -0 -0 -0 -0 -0 -0 -0 -0 -0 -0 -0 -0 -0 -1 -1 -1 -1 -1 -1 -1 -1 -1 -1 -2 -2 -2 -2 -2 -2 -3 -3 -3
-1 -1 -1 -1 -1 -1 -1 -1 -1 -1 -1 -1 -0 -0 -0 -0 -1 -1 -1 -1 -1 -1 -1 -1 -1 -1 -1 -1 -1 -1 -1 -1 -1 -2 -2 -2 -2 -2 -2 -2 -3 -3 -3 -3
-2 -2 -2 -2 -1 -1 -1 -1 -1 -1 -1 -1 -1 -1 -1 -1 -1 -1 -1 -1 -1 -1 -1 -1 -1 -1 -1 -1 -1 -1 -2 -2 -2 -2 -2 -2 -2 -3 -3 -3 -3 -3 -3 -4
Wind_Speed
11 11 10 13 14 13 16 15 12 13 15 18 15 13 13 12 11 10 10 9 8 8 7 7 7 7 7 6 5 5 5 5 5 4 4 3 3 3 2 1 2 2 1 2
8 8 10 14 17 18 18 19 21 22 22 18 14 11 11 12 11 11 11 10 9 9 8 8 8 7 7 7 6 5 6 6 5 4 4 4 3 3 2 2 2 1 1 2
7 7 9 11 11 14 11 12 13 15 13 10 10 11 12 12 11 10 11 10 10 9 8 8 8 7 7 7 6 6 6 6 5 5 5 4 4 3 3 2 2 2 2 2
6 6 7 2 1 6 9 11 13 14 14 12 12 13 13 12 10 10 10 10 9 8 8 8 7 7 7 6 6 6 6 6 6 6 6 5 4 4 4 3 3 3 2 2
4 6 10 7 3 5 6 7 8 12 12 11 10 10 8 5 6 9 10 10 9 8 8 7 7 6 6 6 6 7 7 7 6 6 6 6 5 5 4 4 3 3 3 3
5 6 7 3 1 2 3 5 2 5 7 8 7 8 7 7 9 10 10 9 9 8 7 7 7 6 7 7 7 8 8 7 6 6 7 7 6 5 4 4 4 3 3 3
10 8 9 5 3 4 4 2 1 3 6 8 8 10 12 13 13 12 12 11 9 8 7 7 6 6 8 8 9 8 6 6 6 6 7 7 6 5 5 4 4 4 3 3
7 8 9 3 6 6 5 5 6 8 9 10 12 14 14 14 14 13 12 11 9 8 8 7 6 7 9 10 8 6 6 6 6 6 6 5 6 5 5 5 5 4 4 3
9 10 5 4 8 7 7 10 11 11 12 12 14 15 15 15 15 13 13 11 9 9 9 7 7 8 10 8 6 6 6 7 7 6 6 6 6 6 5 5 5 4 4 4
10 14 15 15 15 14 13 14 15 15 15 15 16 17 17 15 15 14 13 11 9 9 9 9 8 9 9 7 6 7 7 7 7 6 6 7 6 6 6 6 6 5 5 4
14 16 16 15 13 14 14 15 16 16 15 15 16 17 17 15 15 13 12 11 9 10 10 10 9 9 8 7 7 8 8 7 7 7 7 6 7 6 7 7 7 6 5 5
16 16 14 16 16 16 17 17 17 17 17 16 15 16 16 15 14 13 12 10 10 10 11 10 9 9 8 8 8 8 8 7 6 6 6 6 6 5 7 8 8 9 7 6
19 18 18 20 19 18 17 18 17 16 16 17 15 14 14 14 13 12 12 11 11 11 11 10 9 9 8 8 8 9 9 8 6 6 6 6 6 6 5 6 9 9 10 9
17 16 18 18 17 17 17 16 15 15 14 14 14 13 12 13 12 12 12 11 11 11 10 10 10 10 9 8 9 10 9 9 8 7 7 7 7 6 6 5 5 5 7 10
15 14 16 17 16 15 14 13 13 14 13 13 11 11 12 12 13 13 12 10 10 10 10 10 10 10 8 8 9 10 8 7 7 7 6 6 6 6 6 7 6 5 4 5
12 13 13 13 14 14 13 12 13 14 13 13 12 12 12 12 12 12 11 9 9 10 10 9 10 9 7 8 9 8 8 9 8 6 6 6 6 6 6 6 6 6 6 5
12 11 11 12 13 13 13 12 12 13 13 13 13 12 11 11 11 11 10 9 10 11 10 10 10 8 7 8 9 7 7 7 9 7 7 7 7 7 7 7 7 7 6 7
10 10 11 12 12 13 13 12 12 12 12 12 12 11 10 10 11 11 10 9 9 10 10 9 8 7 7 8 8 7 6 6 7 8 7 7 7 7 7 7 7 7 6 6
8 9 10 11 11 11 11 12 12 11 11 10 10 10 11 11 11 11 9 9 10 11 9 7 8 8 8 9 8 7 7 7 7 7 7 8 8 7 7 7 7 7 6 6
8 9 10 11 10 10 11 11 11 11 10 9 9 10 11 11 10 9 9 9 9 8 7 6 6 7 7 7 9 7 7 8 8 7 7 7 7 7 7 7 7 7 7 7
10 10 11 11 11 11 11 11 11 11 11 9 9 10 11 11 9 8 8 9 9 7 7 7 6 6 6 6 8 7 7 8 8 8 7 7 7 7 7 7 7 7 7 7
10 10 12 11 12 13 12 11 11 11 12 11 10 10 10 10 9 8 9 8 8 7 6 6 5 6 7 7 6 7 8 8 7 7 7 7 7 7 7 7 7 7 7 7
11 11 12 12 12 13 13 12 11 11 11 11 11 10 10 10 8 8 9 6 6 7 6 6 7 8 8 6 6 7 8 8 8 8 7 7 7 7 7 7 7 7 7 6
13 13 13 13 12 12 14 13 11 10 11 11 11 10 10 9 8 7 7 8 8 8 7 8 9 10 9 6 6 7 7 7 7 7 7 7 6 6 6 6 6 6 6 7
13 13 13 12 12 12 12 12 11 11 11 10 10 10 8 7 8 8 7 7 8 8 7 8 9 9 7 6 6 7 7 7 7 6 7 6 6 6 6 6 6 6 6 6
14 14 13 13 12 12 11 10 10 10 9 10 10 8 7 6 7 7 7 7 8 8 7 6 6 6 6 6 6 7 6 6 7 7 7 6 7 6 6 6 7 6 6 5
13 13 11 12 11 11 10 10 10 11 10 9 10 9 7 7 7 7 7 7 6 6 6 5 5 5 5 5 5 6 5 5 5 6 6 6 6 6 6 7 6 5 5 5
Wind_Direction
265 271 267 261 254 235 226 231 245 259 266 276 288 292 292 291 290 288 283 277 269 263 260 254 250 248 246 246 243 238 242 244 248 253 257 259 262 269 279 287 286 284 295 304
275 263 264 266 256 245 242 241 246 261 272 279 287 287 286 286 287 287 284 278 272 265 259 254 248 245 242 241 237 231 234 239 242 244 246 247 251 253 254 261 271 279 287 295
281 296 293 269 250 225 220 221 229 244 253 276 289 292 296 295 290 287 288 285 278 270 261 255 248 240 237 236 232 230 233 234 233 234 239 241 239 238 241 244 246 252 265 277
290 304 258 262 132 203 223 241 231 244 262 276 286 298 297 285 281 291 296 291 284 276 269 260 250 241 237 232 228 229 232 233 229 228 232 232 232 235 238 236 234 238 247 260
262 279 281 284 232 200 220 266 235 240 261 279 297 299 290 290 289 294 297 293 287 280 271 260 248 238 231 230 227 229 232 232 229 226 228 227 227 232 231 227 228 233 236 239
241 262 266 295 147 170 216 263 207 220 270 296 305 304 314 335 319 308 300 293 287 282 270 256 246 230 225 230 229 233 234 233 229 225 227 228 228 227 224 223 225 224 226 230
237 250 268 274 165 167 237 325 7 273 295 300 288 290 304 310 307 301 298 293 287 275 265 255 243 226 228 232 235 237 234 231 228 225 226 227 226 220 216 217 219 219 227 233
214 229 255 180 161 210 285 327 300 299 300 293 287 292 295 298 300 298 295 289 282 272 266 258 240 228 233 237 239 234 227 228 228 225 223 220 219 215 213 212 216 221 227 235
216 235 276 213 236 270 294 291 293 295 294 292 290 291 294 295 296 294 289 285 277 268 266 257 240 232 239 243 235 223 223 227 228 225 223 218 215 212 210 213 218 221 224 232
254 262 269 272 271 272 273 277 284 287 289 288 286 288 291 291 290 289 286 281 273 265 260 258 246 239 242 242 229 223 227 228 225 221 220 217 215 213 212 213 216 219 222 228
259 273 283 276 270 278 287 287 286 287 286 282 283 284 285 286 286 285 283 278 267 259 259 259 253 245 241 233 221 224 229 228 224 220 218 215 215 217 218 222 222 219 221 221
263 271 275 284 291 295 293 291 292 292 291 286 280 280 283 283 283 283 281 277 268 262 260 261 254 248 240 228 219 221 226 226 222 218 216 213 214 222 226 231 229 231 235 231
264 278 281 285 290 292 291 291 291 288 287 288 285 281 280 280 281 282 280 274 267 264 262 261 255 250 241 227 220 222 226 225 222 217 215 212 211 215 224 223 226 232 234 232
267 276 280 282 287 292 293 292 291 288 285 282 283 282 280 280 280 279 277 275 272 267 262 258 255 252 243 226 221 225 228 226 221 220 215 212 212 214 216 218 219 224 226 228
269 270 274 284 289 291 293 293 293 291 292 290 286 283 282 281 280 280 280 277 273 267 262 257 255 254 241 224 221 224 225 226 222 219 213 212 212 212 215 218 222 222 215 213
283 284 281 282 286 291 294 294 291 291 293 291 289 286 284 281 281 282 281 275 269 267 264 259 257 255 239 225 223 225 226 221 217 215 211 210 210 212 214 216 219 219 217 209
281 285 286 289 292 294 294 292 288 287 289 288 287 289 288 286 284 282 280 275 268 267 264 257 256 253 234 223 220 223 222 216 209 213 214 213 212 214 214 215 216 219 220 208
274 276 279 282 285 290 294 296 292 290 287 287 290 289 286 282 281 283 286 285 280 277 268 256 251 244 234 224 220 219 216 214 210 213 213 213 215 214 214 216 217 219 219 209
292 290 291 289 287 285 287 292 293 291 291 289 287 285 283 280 280 282 285 281 277 277 275 257 240 240 237 226 215 215 213 212 211 213 213 213 215 216 215 216 217 216 211 206
306 304 301 299 296 290 289 292 293 291 290 287 284 284 285 284 283 282 280 275 268 269 275 268 255 248 239 225 210 215 213 213 213 212 211 210 212 216 216 216 216 213 210 208
308 307 305 303 301 297 292 292 292 292 294 290 282 282 284 287 285 279 277 280 281 271 266 258 254 250 238 224 210 218 216 215 214 213 212 212 212 213 215 215 215 212 210 209
300 300 299 299 300 301 300 297 291 289 290 289 285 283 285 287 285 279 269 267 276 272 271 265 256 246 237 226 221 220 218 217 217 215 214 213 212 213 214 213 214 211 209 207
289 288 289 290 293 295 297 294 289 287 285 283 282 281 279 279 280 278 283 278 274 268 268 265 254 243 238 232 227 224 222 219 217 215 215 214 213 213 214 213 213 210 208 206
284 283 283 284 286 287 288 289 288 284 280 280 276 272 272 277 278 267 267 276 275 272 272 263 251 245 239 233 227 224 223 222 220 218 217 215 213 213 213 212 211 209 207 204
279 279 277 277 280 280 279 281 284 284 283 281 280 275 267 259 263 275 278 276 273 271 272 262 251 245 240 233 227 225 224 223 220 215 213 212 211 211 211 209 208 207 205 205
277 279 278 275 274 276 278 277 277 279 281 282 283 281 274 267 263 267 271 271 269 267 266 263 255 245 238 232 230 227 223 221 221 218 213 211 211 209 207 206 204 204 202 202
274 274 274 275 272 266 264 265 267 271 271 271 278 281 278 275 271 269 269 269 269 266 262 257 250 244 238 233 229 225 220 216 212 210 208 208 206 204 202 199 201 199 195 194
Height
1522 1520 1521 1518 1517 1517 1517 1512 1508 1495 1492 1485 1486 1487 1487 1486 1484 1482 1480 1479 1477 1476 1475 1474 1473 1472 1471 1470 1470 1469 1468 1467 1466 1465 1464 1462 1461 1460 1459 1458 1457 1456 1455 1454
1521 1518 1518 1515 1509 1508 1508 1506 1501 1497 1491 1484 1485 1485 1484 1482 1480 1478 1476 1474 1473 1472 1470 1469 1469 1468 1467 1466 1465 1465 1464 1463 1462 1461 1460 1459 1458 1457 1456 1455 1454 1453 1452 1452
1515 1514 1513 1501 1492 1495 1497 1495 1494 1491 1485 1483 1483 1482 1480 1478 1476 1474 1472 1470 1469 1467 1466 1465 1464 1463 1463 1462 1461 1460 1460 1459 1458 1458 1457 1456 1455 1454 1453 1452 1452 1451 1450 1449
1518 1515 1507 1487 1490 1490 1490 1488 1489 1486 1483 1482 1482 1480 1477 1474 1473 1470 1468 1466 1465 1463 1462 1461 1460 1459 1458 1458 1457 1456 1456 1455 1454 1454 1453 1452 1452 1451 1450 1449 1449 1448 1447 1446
1519 1511 1496 1486 1488 1490 1489 1483 1482 1483 1482 1481 1480 1477 1472 1471 1469 1468 1466 1463 1461 1460 1458 1457 1455 1455 1454 1453 1453 1452 1451 1451 1450 1450 1449 1449 1448 1447 1447 1446 1446 1445 1444 1444
1517 1513 1498 1483 1488 1488 1489 1480 1479 1480 1479 1479 1478 1473 1469 1469 1467 1464 1462 1460 1457 1455 1454 1452 1451 1450 1449 1448 1448 1447 1447 1447 1446 1446 1445 1445 1444 1444 1443 1443 1442 1442 1441 1441
1514 1509 1491 1484 1487 1489 1485 1476 1478 1477 1477 1476 1475 1472 1469 1466 1463 1460 1458 1455 1453 1451 1449 1448 1446 1445 1444 1443 1443 1443 1442 1442 1441 1441 1441 1441 1440 1440 1439 1439 1439 1438 1438 1437
1508 1506 1491 1482 1485 1483 1477 1477 1476 1475 1474 1472 1470 1467 1464 1461 1458 1455 1452 1450 1448 1446 1444 1443 1441 1440 1439 1438 1438 1438 1437 1437 1437 1436 1436 1436 1436 1435 1435 1435 1435 1434 1434 1434
1494 1486 1480 1480 1479 1477 1476 1475 1473 1472 1470 1468 1464 1461 1458 1455 1452 1449 1447 1444 1442 1440 1438 1437 1436 1435 1434 1433 1433 1432 1432 1432 1431 1431 1431 1431 1431 1431 1431 1430 1430 1430 1430 1430
1489 1479 1477 1476 1475 1473 1473 1471 1468 1467 1464 1462 1458 1455 1452 1449 1446 1443 1441 1438 1436 1434 1432 1431 1430 1429 1429 1428 1428 1427 1426 1426 1426 1426 1426 1426 1426 1426 1426 1426 1426 1426 1425 1425
1481 1475 1473 1469 1469 1468 1466 1464 1462 1460 1457 1455 1451 1448 1445 1442 1439 1437 1434 1432 1430 1428 1426 1425 1424 1423 1423 1422 1422 1421 1421 1421 1421 1421 1421 1421 1421 1421 1421 1421 1421 1421 1421 1422
1471 1468 1468 1464 1463 1462 1460 1457 1455 1452 1449 1446 1444 1440 1438 1435 1432 1430 1427 1425 1423 1422 1420 1419 1418 1417 1417 1416 1416 1415 1415 1415 1415 1415 1415 1415 1415 1416 1416 1416 1416 1417 1417 1417
1465 1463 1462 1459 1457 1455 1453 1450 1447 1444 1441 1438 1435 1433 1430 1428 1425 1423 1421 1419 1417 1415 1414 1413 1411 1410 1410 1410 1409 1409 1409 1409 1409 1409 1409 1410 1410 1410 1410 1411 1411 1411 1412 1412
1460 1458 1454 1452 1450 1448 1445 1442 1439 1436 1434 1431 1428 1426 1423 1421 1418 1416 1414 1413 1411 1409 1407 1406 1404 1404 1403 1403 1403 1402 1403 1403 1403 1403 1403 1404 1404 1404 1405 1405 1405 1405 1406 1407
1452 1451 1449 1445 1443 1441 1438 1435 1432 1429 1426 1424 1421 1419 1417 1414 1412 1410 1408 1406 1404 1402 1400 1399 1398 1397 1397 1396 1396 1396 1396 1397 1397 1397 1397 1398 1399 1399 1399 1400 1400 1400 1401 1402
1445 1444 1442 1439 1436 1434 1432 1429 1426 1422 1420 1417 1415 1412 1410 1408 1405 1403 1402 1400 1398 1395 1394 1393 1391 1391 1390 1390 1390 1390 1390 1391 1391 1391 1392 1392 1393 1393 1393 1394 1394 1395 1395 1396
1440 1437 1435 1433 1431 1428 1426 1423 1420 1417 1414 1411 1408 1406 1404 1401 1399 1397 1396 1394 1392 1389 1388 1386 1385 1385 1384 1384 1384 1384 1385 1385 1385 1386 1386 1386 1387 1387 1388 1388 1389 1389 1390 1391
1434 1433 1431 1429 1426 1423 1420 1417 1414 1411 1408 1405 1403 1401 1398 1396 1393 1392 1390 1388 1385 1383 1382 1381 1380 1379 1378 1378 1378 1378 1378 1379 1379 1379 1380 1380 1381 1382 1382 1383 1383 1384 1385 1386
1430 1428 1426 1424 1421 1418 1415 1412 1409 1406 1403 1400 1398 1395 1393 1390 1388 1386 1384 1381 1379 1377 1376 1375 1374 1373 1372 1372 1372 1372 1372 1373 1373 1374 1374 1375 1376 1376 1377 1377 1378 1379 1379 1380
1426 1424 1422 1419 1416 1414 1411 1408 1404 1401 1398 1395 1392 1390 1387 1385 1383 1380 1378 1375 1374 1372 1370 1369 1368 1367 1366 1366 1366 1366 1367 1367 1367 1368 1369 1369 1370 1370 1371 1372 1373 1373 1374 1375
1422 1420 1417 1414 1412 1409 1406 1403 1399 1396 1393 1390 1387 1384 1382 1379 1377 1375 1372 1369 1368 1367 1365 1363 1362 1361 1361 1360 1360 1360 1361 1361 1362 1362 1362 1363 1364 1365 1366 1367 1367 1368 1369 1370
1417 1415 1412 1409 1407 1404 1401 1398 1394 1391 1387 1385 1382 1379 1376 1374 1371 1369 1367 1365 1363 1361 1359 1357 1356 1355 1355 1354 1354 1354 1355 1355 1356 1356 1357 1357 1358 1359 1360 1361 1362 1363 1364 1365
1411 1409 1406 1404 1401 1398 1395 1392 1389 1385 1382 1379 1376 1374 1371 1369 1366 1364 1361 1359 1357 1355 1353 1352 1351 1350 1349 1348 1348 1348 1349 1349 1350 1350 1351 1352 1353 1354 1355 1356 1357 1358 1359 1360
1404 1402 1399 1397 1394 1391 1387 1384 1382 1379 1376 1373 1370 1368 1365 1363 1360 1358 1356 1354 1352 1350 1348 1347 1346 1345 1344 1343 1343 1343 1343 1344 1344 1345 1346 1347 1348 1349 1350 1351 1352 1353 1354 1355
1396 1393 1391 1388 1386 1382 1380 1377 1374 1371 1369 1366 1363 1361 1359 1357 1355 1352 1350 1348 1346 1345 1343 1341 1340 1339 1338 1338 1338 1338 1338 1338 1339 1340 1341 1341 1342 1343 1344 1346 1347 1348 1349 1350
1386 1384 1382 1379 1377 1374 1372 1369 1366 1363 1361 1358 1356 1354 1352 1350 1348 1346 1344 1342 1341 1339 1337 1336 1335 1334 1333 1333 1332 1332 1333 1333 1334 1335 1335 1336 1338 1339 1340 1341 1342 1343 1344 1345
1376 1374 1372 1369 1367 1365 1363 1361 1358 1355 1353 1351 1348 1346 1345 1343 1342 1340 1338 1336 1335 1333 1332 1330 1329 1328 1328 1327 1327 1328 1328 1328 1329 1330 1330 1332 1333 1334 1335 1336 1337 1339 1340 1341